TimeCST,TemperatureF,Dew PointF,Humidity,Sea Level PressureIn,VisibilityMPH,Wind Direction,Wind SpeedMPH,Gust SpeedMPH,PrecipitationIn,Events,Conditions,WindDirDegrees,DateUTC
12:56 AM,39.0,24.1,55,29.56,10.0,South,21.9,-,N/A,,Clear,190,2014-01-12 06:56:00
1:56 AM,37.0,24.1,59,29.53,10.0,SSW,11.5,20.7,N/A,,Clear,210,2014-01-12 07:56:00
2:56 AM,37.9,24.1,57,29.51,10.0,SSW,10.4,21.9,N/A,,Clear,210,2014-01-12 08:56:00
3:56 AM,39.0,24.1,55,29.49,10.0,SW,8.1,-,N/A,,Clear,220,2014-01-12 09:56:00
4:56 AM,39.9,23.0,51,29.48,10.0,SW,9.2,-,N/A,,Clear,220,2014-01-12 10:56:00
5:56 AM,39.0,23.0,53,29.47,10.0,SW,13.8,25.3,N/A,,Clear,220,2014-01-12 11:56:00
6:56 AM,39.0,23.0,53,29.47,10.0,WSW,4.6,-,N/A,,Clear,240,2014-01-12 12:56:00
7:56 AM,39.0,24.1,55,29.46,10.0,WSW,9.2,-,N/A,,Clear,240,2014-01-12 13:56:00
8:56 AM,41.0,25.0,53,29.48,10.0,WSW,6.9,-,N/A,,Clear,250,2014-01-12 14:56:00
9:56 AM,44.1,27.0,51,29.50,10.0,WSW,10.4,-,N/A,,Clear,250,2014-01-12 15:56:00
10:56 AM,48.0,32.0,54,29.49,10.0,NW,9.2,-,N/A,,Clear,320,2014-01-12 16:56:00
11:56 AM,48.9,30.9,50,29.48,10.0,NNW,12.7,-,N/A,,Clear,330,2014-01-12 17:56:00
12:56 PM,50.0,30.9,48,29.46,10.0,NW,10.4,-,N/A,,Clear,320,2014-01-12 18:56:00
1:56 PM,50.0,30.0,46,29.48,10.0,NW,6.9,-,N/A,,Clear,310,2014-01-12 19:56:00
2:56 PM,48.9,28.9,46,29.52,10.0,NW,10.4,-,N/A,,Partly Cloudy,320,2014-01-12 20:56:00
3:56 PM,46.9,28.9,50,29.55,10.0,WNW,4.6,-,N/A,,Scattered Clouds,300,2014-01-12 21:56:00
4:56 PM,43.0,28.9,58,29.59,10.0,WSW,5.8,-,N/A,,Unknown,240,2014-01-12 22:56:00
5:56 PM,42.1,28.9,60,29.62,10.0,SW,8.1,-,N/A,,Overcast,220,2014-01-12 23:56:00
6:56 PM,43.0,28.9,58,29.65,10.0,West,8.1,-,N/A,,Overcast,270,2014-01-13 00:56:00
7:56 PM,41.0,28.0,60,29.66,10.0,West,5.8,-,N/A,,Overcast,280,2014-01-13 01:56:00
8:56 PM,42.1,28.0,58,29.66,10.0,West,10.4,-,N/A,,Mostly Cloudy,280,2014-01-13 02:56:00
9:56 PM,41.0,26.1,55,29.69,10.0,West,10.4,-,N/A,,Clear,280,2014-01-13 03:56:00
10:56 PM,39.9,25.0,55,29.70,10.0,West,8.1,-,N/A,,Partly Cloudy,280,2014-01-13 04:56:00
11:56 PM,39.9,25.0,55,29.70,10.0,WNW,10.4,-,N/A,,Clear,290,2014-01-13 05:56:00